Date,TemperatureHighF,TemperatureAvgF,TemperatureLowF,DewpointHighF,DewpointAvgF,DewpointLowF,HumidityHigh,HumidityAvg,HumidityLow,PressureMaxIn,PressureMinIn,WindSpeedMaxMPH,WindSpeedAvgMPH,GustSpeedMaxMPH,PrecipitationSumIn
2013-3-1,44.1,40.4,35.8,32.0,29.4,24.6,74,65,52,29.91,29.74,12,2,12,0.00
2013-3-2,38.1,33.1,29.8,25.3,23.2,21.0,76,67,53,29.92,29.84,12,2,12,0.00
2013-3-3,40.3,33.4,28.9,23.5,20.9,18.1,75,61,46,29.94,29.82,13,3,14,0.00
2013-3-4,43.9,34.4,28.2,21.7,18.6,15.4,68,53,38,30.06,29.94,17,3,20,0.00
2013-3-5,54.0,39.4,27.0,31.6,21.4,12.2,79,52,21,30.11,29.84,11,1,12,0.00
2013-3-6,37.6,34.9,33.1,35.8,33.3,31.1,97,94,79,30.02,29.63,18,2,18,0.52
2013-3-7,49.8,41.7,34.3,33.4,29.9,27.1,86,64,43,30.17,30.02,15,3,16,0.06
2013-3-8,50.7,42.1,35.6,30.9,28.6,25.5,75,60,44,30.29,30.15,19,3,20,0.00
2013-3-9,63.3,45.1,31.5,31.3,27.4,24.3,77,53,23,30.38,30.27,7,1,8,0.00
2013-3-10,65.5,48.5,30.9,34.3,26.7,14.9,88,49,16,30.35,30.23,7,1,11,0.00
2013-3-11,60.1,51.2,42.6,50.2,44.4,34.3,91,78,63,30.27,29.94,11,2,11,0.00
2013-3-12,57.6,52.6,41.7,55.4,45.9,30.7,97,79,59,29.98,29.71,16,3,16,0.58
2013-3-13,50.9,40.5,30.7,33.4,27.4,19.8,92,62,33,30.09,29.92,16,2,16,0.00
2013-3-14,46.6,37.6,31.6,21.9,18.3,15.4,62,46,30,30.15,30.05,16,3,22,0.00
2013-3-15,57.6,43.4,28.0,35.1,26.1,19.4,79,53,29,30.12,29.80,13,1,13,0.00
2013-3-16,61.3,47.4,39.4,45.0,36.9,33.3,82,68,49,29.95,29.65,10,1,11,0.00
2013-3-17,41.2,38.0,34.2,33.8,30.1,26.1,87,73,60,30.29,29.93,8,1,10,0.00
2013-3-18,37.8,36.1,31.8,36.0,30.0,22.5,96,80,57,30.35,29.91,11,1,11,0.34
2013-3-19,60.3,45.3,35.6,42.4,31.0,10.6,97,66,19,29.93,29.73,17,2,17,0.01
2013-3-20,53.8,43.3,30.6,25.0,18.1,12.0,59,37,24,30.01,29.78,16,2,18,0.00
2013-3-21,39.9,33.7,28.2,28.6,16.9,8.6,85,51,37,29.93,29.78,16,-1,18,0.00
2013-3-22,47.7,35.9,26.4,22.5,18.0,11.3,63,49,34,30.02,29.91,13,2,15,0.00
2013-3-23,53.8,39.8,26.2,29.5,23.8,20.8,81,55,34,30.06,29.94,14,1,16,0.00
2013-3-24,44.4,37.0,29.8,32.2,25.3,22.6,93,64,43,30.03,29.68,7,1,7,0.01
2013-3-25,36.9,34.5,32.7,35.8,33.2,31.1,96,95,93,29.73,29.55,6,1,7,0.44
2013-3-26,49.5,40.4,31.3,38.1,31.7,26.8,97,74,44,30.01,29.73,13,2,13,0.05
2013-3-27,51.1,42.5,36.0,34.2,29.2,25.0,75,60,42,30.14,30.01,17,3,17,0.00
2013-3-28,48.9,42.1,34.2,33.1,30.1,27.5,78,63,46,30.25,30.11,19,2,19,0.00
2013-3-29,56.5,46.0,35.4,35.2,31.3,28.0,81,58,36,30.28,30.16,13,2,15,0.00
2013-3-30,59.7,47.0,33.6,37.0,30.0,23.4,86,56,27,30.25,30.13,10,1,10,0.00
2013-3-31,54.1,47.9,42.4,49.5,40.8,30.6,93,77,61,30.14,29.76,10,1,11,0.02